Simultaneous Nadir Overpasses (SNOs) Predictions

Prediction of SNOs between GOES-15 and METOP-A Satellite Orbit:

Table of predicted SNOs for the next 14.0 days since TLE Epoch: 8/15/2014
Index Date Time (GOES-15) GOES-15 Lat,Lon METOP-A Lat,Lon Distance(km) Time Diff (sec)
1 08/16/2014 18:18:59 0.06,-135.46 -0.54,-132.65 320.40 80
2 08/18/2014 06:40:40 -0.10,-135.43 -0.47,-137.24 205.55 80
3 08/19/2014 06:17:22 -0.08,-135.42 0.66,-132.25 361.70 80
4 08/20/2014 18:38:53 0.11,-135.41 0.43,-136.80 158.41 80
5 08/21/2014 18:15:35 0.09,-135.40 -0.70,-131.81 408.44 80
6 08/23/2014 06:37:15 -0.12,-135.36 -0.36,-136.39 118.33 80
7 08/24/2014 06:13:56 -0.09,-135.34 0.78,-131.41 448.36 80
8 08/25/2014 18:35:29 0.13,-135.33 0.26,-135.96 72.46 80
9 08/26/2014 18:12:10
